Location: ?????????
(54.7630°N, 39.4991°E)
Time: 21:36:23
(UTC+00:00)

SL-8 Rocket - Pass Details

Date: 14 April 2026
Orbit: 957 x 989 km, 82.9° (Epoch: 11 May)

Event Time Altitude Azimuth Distance (km) Brightness Sun altitude
Rises 17:13:06 0° 169° (S) 3,660 6.6 -7.4°
Reaches altitude 10° 17:15:39 10° 165° (SSE) 2,721 5.9 -7.7°
Maximum altitude 17:21:39 51° 91° (E) 1,223 4.2 -8.4°
Drops below altitude 10° 17:27:43 10° 18° (NNE) 2,757 6.5 -9.2°
Sets 17:30:18 0° 14° (NNE) 3,712 7.3 -9.5°
